"Pseudo-MPEC" for 6H61SAT

Created 2016 May 30 18:56:24 UT using Find_Orb

Astrometry:
     6H61SAT  C2006 04 29.53781 15 41 51.86 -08 28 33.4          17.4 V      E12
     6H61SAT  C2006 04 29.53804 15 41 58.23 -08 28 45.8          15.9 V      E12
     6H61SAT  C2006 04 29.53828 15 42 05.04 -08 28 59.7          17.4 V      E12
     6H61SAT  C2006 04 29.53852 15 42 11.37 -08 29 11.4          16.3 V      E12
     6H61SAT  C2006 04 29.53877 15 42 18.03 -08 29 23.8          17.1 V      E12
     6H61SAT  C2006 04 29.62297 16 23 51.93 -09 29 41.6          16.5 V      E12
     6H61SAT  C2006 04 29.62321 16 23 59.78 -09 29 50.1          17.7 V      E12
     6H61SAT  C2006 04 29.62371 16 24 16.45 -09 30 04.3          17.8 V      E12
     6H61SAT  C2006 04 29.62395 16 24 24.40 -09 30 12.6          17.3 V      E12

Station data:
(E12) Siding Spring Survey (S31.2735 E149.0642)  Australia/NSW.   Observers R.
    H. McNaught, S. Larson, et.al.  Measurer R. H. McNaught.  0.5-m Uppsala
    Schmidt + CCD.

Orbital elements:  6H61SAT
   Perigee 2006 Apr 29.926112 +/- 0.0227 TT = 22:13:36 (JD 2453855.426112)
Epoch 2006 Apr 30.0 TT = JDT 2453855.5                        Find_Orb
M  25.13366 +/- 7                   (J2000 equatorial)
n 340.15759578 +/- 21.1             Peri.   43.69194 +/- 3.2
a 43868.2244 +/- 1816               Node   352.90149 +/- 0.8
e   0.5697296 +/- 0.0234            Incl.   12.39978 +/- 0.13
P1523.97m/1.058d           H 33.1   G  0.15   U 14.8  
q 18875.1951 +/- 1380    Q 68861.2538 +/- 2787
From 9 observations 2006 Apr. 29 (2.1 hr); mean residual 1".307
Residuals in arcseconds: 
060429 E12 2.53- .439+    060429 E12 .805+ .142-    060429 E12 1.59- .676-    
060429 E12 .681- .171+    060429 E12 1.20- .612+    060429 E12 .976+ .607+    
060429 E12 3.64+ 1.08-    060429 E12 .718- .361+    060429 E12 1.31+ .292-    

Ephemerides (geocentric):
Date (UTC) HH   RA              Dec         delta   r     elong  mag " sig PA
---- -- -- --  ------------   ------------  ------ ------ -----  --- ---- ---
2006 04 29 00  10 01 38.686   +04 48 27.35   38286 1.0071 112.1 17.5 910' 101
2006 04 29 01  10 52 45.204   +02 07 31.36   44773 1.0072 125.0 17.5 635' 101
2006 04 29 02  11 31 27.939   +00 00 33.69   50395 1.0072 134.8 17.4 462' 101
2006 04 29 03  12 02 53.125   -01 42 40.79   55180 1.0073 142.7 17.4 345' 101
2006 04 29 04  12 29 41.580   -03 09 10.96   59179 1.0074 149.4 17.4 261' 100
2006 04 29 05  12 53 26.986   -04 23 31.93   62440 1.0074 155.3 17.3 198'  99
2006 04 29 06  13 15 08.913   -05 28 47.65   65004 1.0075 160.6 17.2 9039  98
2006 04 29 07  13 35 28.337   -06 27 04.42   66903 1.0075 165.4 17.1 6752  97
2006 04 29 08  13 54 55.699   -07 19 50.96   68157 1.0075 169.7 17.0 4916  96
2006 04 29 09  14 13 55.506   -08 08 10.32   68783 1.0075 173.1 16.9 3430  94
2006 04 29 10  14 32 49.276   -08 52 46.88   68787 1.0075 174.2 16.8 2232  92
2006 04 29 11  14 51 57.730   -09 34 10.12   68168 1.0075 172.0 16.9 1281  88
2006 04 29 12  15 11 42.768   -10 12 35.78   66921 1.0075 168.1 17.0  564  82
2006 04 29 13  15 32 29.691   -10 48 04.49   65031 1.0075 163.5 17.1  105  42
2006 04 29 14  15 54 50.208   -11 20 16.73   62475 1.0075 158.3 17.2  152 100
2006 04 29 15  16 19 27.102   -11 48 21.18   59223 1.0075 152.4 17.3   68  21
2006 04 29 16  16 47 22.297   -12 10 29.82   55234 1.0075 145.8 17.3  628 107
2006 04 29 17  17 20 12.024   -12 23 02.18   50460 1.0074 137.9 17.4 2055  98
2006 04 29 18  18 00 38.016   -12 18 11.62   44851 1.0074 128.2 17.4 4934  93
2006 04 29 19  18 53 37.953   -11 38 12.35   38378 1.0073 115.3 17.4 180'  89
2006 04 29 20  20 09 19.286   -09 38 23.52   31140 1.0072  96.8 17.6 394'  84
2006 04 29 21  22 09 57.232   -04 23 15.42   23795 1.0071  66.6 18.5 875'  79
2006 04 29 22  01 31 50.798   +06 16 59.39   19052 1.0071  16.1 26??  23d  79
2006 04 29 23  05 30 07.619   +12 24 00.35   21223 1.0071  44.3 20?? 972'  89
2006 04 30 00  08 05 44.733   +09 45 33.41   28015 1.0072  82.2 18.0 476'  96
2006 04 30 01  09 35 35.518   +06 05 08.67   35444 1.0073 104.6 17.6 219'  98
2006 04 30 02  10 34 14.968   +03 07 02.91   42263 1.0074 119.3 17.5 4870  93
2006 04 30 03  11 17 07.855   +00 47 44.50   48233 1.0075 130.2 17.5  756 172
2006 04 30 04  11 51 04.615   -01 04 05.70   53348 1.0075 138.7 17.4 3767 113
2006 04 30 05  12 19 30.843   -02 36 42.67   57657 1.0076 145.9 17.4 6287 108
2006 04 30 06  12 44 21.688   -03 55 32.34   61209 1.0077 152.0 17.4 8294 106
2006 04 30 07  13 06 47.939   -05 04 10.55   64049 1.0077 157.5 17.3 9980 104
2006 04 30 08  13 27 36.806   -06 05 03.92   66212 1.0077 162.5 17.2 191' 103
2006 04 30 09  13 47 22.285   -06 59 54.57   67723 1.0078 167.1 17.1 213' 102
2006 04 30 10  14 06 30.859   -07 49 54.85   68600 1.0078 171.0 17.0 235' 101
2006 04 30 11  14 25 24.966   -08 35 56.06   68853 1.0078 173.7 16.9 257' 100
2006 04 30 12  14 44 25.418   -09 18 33.38   68484 1.0078 173.5 16.9 280'  99
2006 04 30 13  15 03 53.409   -09 58 08.04   67491 1.0078 170.5 17.0 304'  98
2006 04 30 14  15 24 12.583   -10 34 47.05   65861 1.0078 166.2 17.1 331'  97
2006 04 30 15  15 45 51.648   -11 08 19.77   63576 1.0078 161.3 17.2 362'  96
2006 04 30 16  16 09 28.232   -11 38 09.50   60608 1.0078 155.8 17.2 399'  94
2006 04 30 17  16 35 55.293   -12 02 55.04   56920 1.0077 149.5 17.3 446'  93
2006 04 30 18  17 06 32.767   -12 19 50.61   52468 1.0077 142.2 17.3 508'  91
2006 04 30 19  17 43 30.673   -12 23 12.52   47201 1.0077 133.3 17.3 595'  89
2006 04 30 20  18 30 39.305   -12 00 22.70   41075 1.0076 121.9 17.4 729'  86
2006 04 30 21  19 35 29.139   -10 40 48.20   34116 1.0075 106.1 17.4 957'  83
2006 04 30 22  21 14 11.800   -07 04 33.51   26659 1.0074  81.6 17.9  23d  79
2006 04 30 23  23 59 57.745   +01 33 11.83   20325 1.0074  39.8 20??  37d  77
2006 05 01 00  04 00 40.706   +11 28 00.82   19495 1.0074  21.9 24??  48d  85
2006 05 01 01  07 13 58.284   +11 13 11.22   25070 1.0074  68.5 18.5  34d  95
2006 05 01 02  09 04 43.646   +07 29 29.19   32503 1.0075  95.8 17.7  21d 100
2006 05 01 03  10 13 16.134   +04 12 58.29   39621 1.0076 113.0 17.5 902' 102
2006 05 01 04  11 01 22.031   +01 39 26.03   45937 1.0077 125.2 17.5 723' 103
2006 05 01 05  11 38 22.281   -00 22 19.49   51390 1.0078 134.5 17.5 629' 104
2006 05 01 06  12 08 44.349   -02 01 55.59   56015 1.0078 142.1 17.5 577' 103
2006 05 01 07  12 34 51.831   -03 25 48.79   59865 1.0079 148.7 17.4 548' 103
2006 05 01 08  12 58 09.926   -04 38 13.35   62985 1.0080 154.4 17.4 533' 103
2006 05 01 09  13 19 33.683   -05 42 00.09   65416 1.0080 159.6 17.3 528' 102
2006 05 01 10  13 39 41.544   -06 39 06.89   67186 1.0080 164.3 17.2 531' 101
2006 05 01 11  13 59 02.514   -07 30 56.79   68315 1.0081 168.6 17.1 539' 101